Terminal Aerodrome Forecast
Issued by NWS Wilmington, OH

Current Version | Previous Version | Graphics & Text | Print | Product List | Glossary On
Versions: 1 2 3 4 5 6 7 8 9 10 11 12 13 14 15 16 17 18 19 20 21 22
000
FTUS41 KILN 242300
TAFDAY
TAF
KDAY 242338Z 2500/2524 14005KT P6SM BKN080 OVC100
     FM250700 10008KT P6SM VCSH OVC080
     FM251200 10011KT P6SM -SHRA OVC050
     FM251600 10012G22KT P6SM -SHRA OVC040
     FM251800 10013G22KT 4SM -SHRA SCT015 OVC025
     FM252100 08012G22KT 5SM BR VCSH OVC018=

USA.gov is the U.S. government's official web portal to all federal, state and local government web resources and services.